Weather History for Havre, MT

Change the Weather History Date:

Monday, October 14, 2013

  Actual Average Record
Temperature  
Mean Temperature 40 °F 45 °F  
Max Temperature 53 °F 60 °F 82 °F (1958)
Min Temperature 27 °F 31 °F 2 °F (1899)
Degree Days  
Heating Degree Days 25 20  
Month to date heating degree days 265 239  
Since 1 July heating degree days 433 596  
Cooling Degree Days 0 0  
Month to date cooling degree days 0 0  
Year to date cooling degree days 445 386  
Moisture  
Dew Point 28 °F    
Average Humidity 62    
Maximum Humidity 85    
Minimum Humidity 38    
Precipitation  
Precipitation 0.00 in 0.02 in 0.49 in (1962)
Month to date precipitation 0.01 0.31  
Year to date precipitation 17.16 10.10  
Snow  
Snow 0.00 in 0.10 in 1.00 in (2009)
Month to date snowfall 0.0 0.7  
Since 1 July snowfall 0.0 1.0  
Since 1 September snowfall 0.0 1.0  
Snow Depth 0.00 in    
Sea Level Pressure  
Sea Level Pressure 30.39 in    
Wind  
Wind Speed 4 mph (NNE)    
Max Wind Speed 10 mph    
Max Gust Speed 13 mph    
Visibility 10 miles    
Events      
T = Trace of Precipitation, MM = Missing Value Source: NWS Daily Summary

Daily Weather History Graph

Daily Weather History Graph

Search for Another Location

Airport:

Trip Planner

Search our weather history database for the weather conditions in past years. The results will help you decide how hot, cold, wet, or windy it might be!

Date:

Astronomy

Oct. 14, 2013 Rise Set
Actual Time 7:38 AM MDT 6:31 PM MDT
Civil Twilight 7:06 AM MDT 7:02 PM MDT
Nautical Twilight 6:30 AM MDT 7:38 PM MDT
Astronomical Twilight 5:53 AM MDT 8:15 PM MDT
Moon 4:20 PM MDT (10/14) 2:37 AM MDT (10/14)
Length of Visible Light 11h 56m
Length of Day
10h 53m
Waxing Gibbous, 80% of the Moon is Illuminated
Oct 14
Waxing Gibbous
Oct 18
Full
Oct 26
Last Quarter
Nov 3
New
Nov 9
First Quarter

Hourly Weather History & Observations

Time (MDT) Temp. Windchill Dew Point Humidity Pressure Visibility Wind Dir Wind Speed Gust Speed Precip Events Conditions
12:53 AM 42.1 °F 37.1 °F 28.9 °F 60% 30.31 in 10.0 mi NE 8.1 mph - N/A   Overcast
1:53 AM 42.1 °F 39.2 °F 30.0 °F 62% 30.31 in 10.0 mi East 4.6 mph - N/A   Overcast
2:53 AM 42.1 °F 36.6 °F 28.0 °F 58% 30.30 in 10.0 mi ENE 9.2 mph - N/A   Overcast
3:53 AM 39.0 °F 33.4 °F 28.0 °F 65% 30.31 in 10.0 mi ENE 8.1 mph - N/A   Overcast
4:53 AM 39.0 °F 36.8 °F 30.0 °F 70% 30.32 in 10.0 mi East 3.5 mph - N/A   Overcast
5:53 AM 39.0 °F 36.8 °F 30.0 °F 70% 30.33 in 10.0 mi ENE 3.5 mph - N/A   Overcast
6:53 AM 39.9 °F 35.1 °F 28.9 °F 65% 30.35 in 10.0 mi NE 6.9 mph - N/A   Overcast
7:53 AM 39.9 °F 35.8 °F 28.0 °F 63% 30.37 in 10.0 mi NE 5.8 mph - N/A   Overcast
8:53 AM 41.0 °F - 28.0 °F 60% 30.39 in 10.0 mi Calm Calm - N/A   Overcast
9:53 AM 43.0 °F - 28.0 °F 56% 30.41 in 10.0 mi Calm Calm - N/A   Overcast
10:53 AM 44.1 °F 41.5 °F 28.9 °F 55% 30.41 in 10.0 mi North 4.6 mph - N/A   Overcast
11:53 AM 46.0 °F 44.8 °F 28.0 °F 50% 30.42 in 10.0 mi Variable 3.5 mph - N/A   Overcast
12:53 PM 48.9 °F - 27.0 °F 43% 30.41 in 10.0 mi Calm Calm - N/A   Overcast
1:53 PM 48.9 °F - 26.1 °F 41% 30.40 in 10.0 mi Calm Calm - N/A   Mostly Cloudy
2:53 PM 51.1 °F - 26.1 °F 38% 30.39 in 10.0 mi Calm Calm - N/A   Overcast
3:53 PM 51.1 °F - 26.1 °F 38% 30.40 in 10.0 mi NW 5.8 mph - N/A   Mostly Cloudy
4:53 PM 50.0 °F - 26.1 °F 39% 30.40 in 10.0 mi West 4.6 mph - N/A   Overcast
5:53 PM 48.9 °F - 28.0 °F 44% 30.41 in 10.0 mi West 3.5 mph - N/A   Overcast
6:53 PM 46.9 °F - 27.0 °F 46% 30.42 in 10.0 mi Calm Calm - N/A   Mostly Cloudy
7:53 PM 37.9 °F 33.5 °F 27.0 °F 65% 30.44 in 10.0 mi SSW 5.8 mph - N/A   Clear
8:53 PM 37.9 °F 34.4 °F 28.9 °F 70% 30.44 in 10.0 mi SSW 4.6 mph - N/A   Overcast
9:53 PM 34.0 °F 29.8 °F 27.0 °F 75% 30.45 in 10.0 mi West 4.6 mph - N/A   Partly Cloudy
10:53 PM 28.9 °F 21.9 °F 24.1 °F 82% 30.46 in 10.0 mi WSW 6.9 mph - N/A   Clear
11:53 PM 28.0 °F 20.8 °F 23.0 °F 81% 30.45 in 10.0 mi SSW 6.9 mph - N/A   Clear